Yankton, SD

4:43 AM CDT on June 23, 2017 (GMT -0500)
Gurney Municipal

Weather History for KYKN - October, 2011

Change the Weather History Date:

Monday, October 17, 2011

  Actual Average Record
Temperature  
Mean Temperature 44 °F -  
Max Temperature 53 °F 62 °F 87 °F (1991)
Min Temperature 35 °F 36 °F 19 °F (1976)
Degree Days  
Heating Degree Days 21    
Moisture  
Dew Point 30 °F    
Average Humidity 54    
Maximum Humidity 81    
Minimum Humidity 33    
Precipitation  
Precipitation 0.00 in - - ()
Sea Level Pressure  
Sea Level Pressure 30.03 in    
Wind  
Wind Speed 7 mph (West)    
Max Wind Speed 16 mph    
Max Gust Speed 22 mph    
Visibility 10 miles    
Events      
Averages and records for this station are not official NWS values.
T = Trace of Precipitation, MM = Missing Value Source: NWS Daily Summary

Daily Weather History Graph

Daily Weather History Graph

Search for Another Location

Airport or City:

Trip Planner

Search our weather history database for the weather conditions in past years. The results will help you decide how hot, cold, wet, or windy it might be!

Date:

Astronomy

Oct. 17, 2011 Rise Set
Actual Time 7:45 AM CDT 6:44 PM CDT
Civil Twilight 7:16 AM CDT 7:12 PM CDT
Nautical Twilight 6:43 AM CDT 7:45 PM CDT
Astronomical Twilight 6:10 AM CDT 8:18 PM CDT
Moon 10:20 PM CDT (10/17) 12:58 PM CDT (10/17)
Length of Visible Light 11h 56m
Length of Day
10h 59m
Waning Gibbous, 74% of the Moon is Illuminated
Oct 17
Waning Gibbous
Oct 19
Last Quarter
Oct 26
New
Nov 2
First Quarter
Nov 10
Full

Hourly Weather History & Observations

Time (CDT) Temp. Windchill Dew Point Humidity Pressure Visibility Wind Dir Wind Speed Gust Speed Precip Events Conditions
12:15 AM 39.2 °F 37.0 °F 26.6 °F 61% 30.03 in 10.0 mi West 3.5 mph - N/A   Clear
12:35 AM 41.0 °F 37.1 °F 26.6 °F 57% 30.03 in 10.0 mi West 5.8 mph - N/A   Clear
12:55 AM 39.2 °F 35.0 °F 24.8 °F 56% 30.03 in 10.0 mi West 5.8 mph - N/A   Clear
1:15 AM 37.4 °F 32.8 °F 26.6 °F 65% 30.03 in 10.0 mi West 5.8 mph - N/A   Clear
2:15 AM 37.4 °F 34.9 °F 26.6 °F 65% 30.01 in 10.0 mi NNE 3.5 mph - N/A   Clear
2:35 AM 35.6 °F - 24.8 °F 65% 30.02 in 10.0 mi Calm Calm - N/A   Clear
3:15 AM 39.2 °F 35.9 °F 28.4 °F 65% 30.02 in 10.0 mi WSW 4.6 mph - N/A   Clear
3:35 AM 39.2 °F - 28.4 °F 65% 30.02 in 10.0 mi Calm Calm - N/A   Clear
3:55 AM 37.4 °F - 30.2 °F 75% 30.01 in 10.0 mi Calm Calm - N/A   Mostly Cloudy
4:35 AM 39.2 °F 34.2 °F 32.0 °F 75% 30.01 in 10.0 mi SSW 6.9 mph - N/A   Scattered Clouds
4:55 AM 39.2 °F - 32.0 °F 75% 30.00 in 10.0 mi Calm Calm - N/A   Scattered Clouds
5:15 AM 39.2 °F 35.0 °F 33.8 °F 81% 30.01 in 10.0 mi NW 5.8 mph - N/A   Scattered Clouds
5:35 AM 41.0 °F 39.0 °F 33.8 °F 76% 30.00 in 10.0 mi West 3.5 mph - N/A   Scattered Clouds
5:55 AM 42.8 °F 40.1 °F 35.6 °F 76% 30.01 in 10.0 mi SSW 4.6 mph - N/A   Partly Cloudy
6:15 AM 42.8 °F 40.1 °F 35.6 °F 76% 30.01 in 10.0 mi West 4.6 mph - N/A   Clear
6:55 AM 42.8 °F - 35.6 °F 76% 30.02 in 10.0 mi Calm Calm - N/A   Mostly Cloudy
7:15 AM 42.8 °F - 35.6 °F 76% 30.02 in 10.0 mi Calm Calm - N/A   Overcast
7:35 AM 42.8 °F - 35.6 °F 76% 30.02 in 10.0 mi Calm Calm - N/A   Overcast
7:55 AM 42.8 °F 41.1 °F 35.6 °F 76% 30.02 in 10.0 mi WNW 3.5 mph - N/A   Overcast
8:15 AM 42.8 °F - 35.6 °F 76% 30.02 in 10.0 mi Calm Calm - N/A   Overcast
8:35 AM 44.6 °F - 35.6 °F 71% 30.02 in 10.0 mi Calm Calm - N/A   Overcast
9:15 AM 44.6 °F 43.1 °F 35.6 °F 71% 30.04 in 10.0 mi West 3.5 mph - N/A   Overcast
9:35 AM 44.6 °F 41.4 °F 35.6 °F 71% 30.04 in 10.0 mi West 5.8 mph - N/A   Overcast
10:15 AM 46.4 °F 42.9 °F 35.6 °F 66% 30.04 in 10.0 mi West 6.9 mph - N/A   Mostly Cloudy
10:35 AM 48.2 °F - 33.8 °F 58% 30.04 in 10.0 mi West 10.4 mph - N/A   Partly Cloudy
10:55 AM 48.2 °F - 33.8 °F 58% 30.04 in 10.0 mi WNW 9.2 mph - N/A   Mostly Cloudy
11:15 AM 48.2 °F - 33.8 °F 58% 30.05 in 10.0 mi WNW 10.4 mph - N/A   Overcast
11:35 AM 50.0 °F - 33.8 °F 54% 30.05 in 10.0 mi WNW 8.1 mph - N/A   Overcast
11:55 AM 51.8 °F - 35.6 °F 54% 30.06 in 10.0 mi WNW 11.5 mph - N/A   Mostly Cloudy
12:15 PM 51.8 °F - 35.6 °F 54% 30.06 in 10.0 mi NW 12.7 mph - N/A   Mostly Cloudy
12:35 PM 53.6 °F - 33.8 °F 47% 30.05 in 10.0 mi NW 11.5 mph - N/A   Scattered Clouds
1:15 PM 53.6 °F - 28.4 °F 38% 30.05 in 10.0 mi NW 11.5 mph 21.9 mph N/A   Clear
1:35 PM 53.6 °F - 28.4 °F 38% 30.05 in 10.0 mi WNW 15.0 mph - N/A   Clear
1:55 PM 53.6 °F - 26.6 °F 35% 30.04 in 10.0 mi NW 15.0 mph - N/A   Clear
2:15 PM 53.6 °F - 26.6 °F 35% 30.04 in 10.0 mi WNW 13.8 mph - N/A   Clear
2:35 PM 53.6 °F - 26.6 °F 35% 30.03 in 10.0 mi WNW 12.7 mph - N/A   Clear
2:55 PM 53.6 °F - 28.4 °F 38% 30.03 in 10.0 mi NW 13.8 mph - N/A   Clear
3:35 PM 53.6 °F - 28.4 °F 38% 30.03 in 10.0 mi WNW 13.8 mph - N/A   Clear
3:55 PM 53.6 °F - 24.8 °F 33% 30.03 in 10.0 mi WNW 16.1 mph - N/A   Clear
4:15 PM 53.6 °F - 24.8 °F 33% 30.03 in 10.0 mi WNW 15.0 mph 18.4 mph N/A   Clear
4:35 PM 53.6 °F - 24.8 °F 33% 30.03 in 10.0 mi NW 13.8 mph - N/A   Clear
4:55 PM 53.6 °F - 24.8 °F 33% 30.03 in 10.0 mi WNW 12.7 mph - N/A   Clear
5:15 PM 51.8 °F - 24.8 °F 35% 30.03 in 10.0 mi WNW 15.0 mph - N/A   Clear
5:55 PM 51.8 °F - 24.8 °F 35% 30.02 in 10.0 mi WNW 10.4 mph - N/A   Partly Cloudy
6:15 PM 51.8 °F - 24.8 °F 35% 30.02 in 10.0 mi West 9.2 mph - N/A   Clear
6:35 PM 51.8 °F - 26.6 °F 38% 30.02 in 10.0 mi West 10.4 mph - N/A   Clear
6:55 PM 51.8 °F - 26.6 °F 38% 30.02 in 10.0 mi West 10.4 mph - N/A   Clear
7:15 PM 51.8 °F - 26.6 °F 38% 30.02 in 10.0 mi West 10.4 mph - N/A   Clear
7:35 PM 50.0 °F - 26.6 °F 40% 30.02 in 10.0 mi WSW 10.4 mph - N/A   Clear
8:15 PM 50.0 °F - 26.6 °F 40% 30.02 in 10.0 mi West 10.4 mph - N/A   Clear
8:35 PM 50.0 °F - 26.6 °F 40% 30.02 in 10.0 mi West 11.5 mph - N/A   Clear
8:55 PM 50.0 °F - 26.6 °F 40% 30.02 in 10.0 mi WSW 12.7 mph - N/A   Clear
9:15 PM 50.0 °F - 26.6 °F 40% 30.02 in 10.0 mi West 13.8 mph 19.6 mph N/A   Clear
9:35 PM 48.2 °F - 26.6 °F 43% 30.02 in 10.0 mi West 16.1 mph - N/A   Clear
10:35 PM 46.4 °F 40.4 °F 28.4 °F 50% 30.03 in 10.0 mi West 13.8 mph - N/A   Clear
10:55 PM 46.4 °F 41.9 °F 28.4 °F 50% 30.04 in 10.0 mi West 9.2 mph - N/A   Clear
11:15 PM 44.6 °F 39.2 °F 28.4 °F 53% 30.04 in 10.0 mi West 10.4 mph - N/A   Clear
11:35 PM 44.6 °F 39.7 °F 28.4 °F 53% 30.04 in 10.0 mi West 9.2 mph - N/A   Clear
11:55 PM 42.8 °F 37.5 °F 28.4 °F 57% 30.04 in 10.0 mi West 9.2 mph - N/A   Clear